GFSSE_sfc_wetblb_021.txt.gz
Wetbulb
69.00 72.33 74.77 74.26 73.59 73.11 72.59 70.99 70.65 69.98 69.91 69.39 68.16 67.55 67.36 67.46 66.88 65.89 65.60 65.14 65.21 65.00 64.73 64.73 64.96 65.14 65.10 65.46 65.52 65.86 66.08 66.78 66.97 68.04 69.97 71.80 72.83 74.60 72.78 74.59 75.38 74.09 75.37
69.88 72.23 74.49 74.02 73.46 73.16 72.52 71.98 71.50 70.94 70.65 70.12 68.74 67.78 67.44 67.04 66.53 66.45 66.15 65.86 65.40 65.63 65.65 65.83 65.91 65.94 65.82 65.75 65.68 66.10 66.29 66.86 67.49 67.20 67.77 68.70 70.29 72.94 73.50 73.65 74.19 74.64 75.34
69.99 71.42 72.70 73.82 73.51 73.13 72.78 72.36 71.85 71.33 70.98 70.52 69.85 68.59 67.86 67.57 66.72 66.64 66.45 66.26 66.24 66.39 66.72 66.66 67.04 67.25 67.22 66.98 66.78 66.70 66.88 67.54 67.71 67.21 67.53 64.46 65.17 69.59 74.42 73.91 73.31 73.97 74.82
69.67 70.55 71.03 73.80 73.44 73.18 72.89 72.53 71.88 71.53 71.28 71.11 70.22 68.73 68.13 68.04 67.52 66.85 66.58 66.61 67.06 67.17 66.98 67.09 67.47 68.11 68.79 68.63 68.24 67.89 67.81 67.68 67.68 67.64 65.32 65.31 63.90 69.31 74.53 73.75 73.74 73.85 73.70
69.19 69.63 70.14 73.80 73.44 73.36 72.97 72.43 72.09 71.81 71.69 71.48 70.27 69.67 68.70 68.51 68.73 68.77 67.61 67.72 67.78 68.15 68.48 68.64 68.64 68.73 68.89 70.26 69.50 69.13 68.46 68.12 68.14 67.33 64.40 62.82 61.31 67.65 74.88 74.52 73.90 73.56 73.64
69.38 68.94 72.25 73.55 73.57 73.39 73.07 72.85 72.58 72.23 72.04 71.74 70.95 70.15 69.69 69.45 69.73 69.51 68.63 68.34 68.20 68.45 69.14 69.72 69.79 69.84 69.58 69.79 69.95 69.85 69.85 69.01 68.70 65.72 64.46 64.25 64.47 73.40 73.88 73.01 73.62 73.00 73.70
69.16 68.35 71.78 73.72 73.90 73.77 73.64 73.30 72.75 72.38 72.11 72.06 71.89 71.01 70.76 71.32 71.07 70.55 69.42 69.05 69.06 69.43 70.06 70.47 70.47 70.35 70.21 70.12 69.78 70.17 69.34 69.56 68.21 65.93 65.10 65.30 64.76 72.90 73.56 73.18 72.92 72.59 73.20
69.41 68.80 70.89 73.50 73.74 73.60 73.57 73.20 72.88 72.53 72.43 72.26 72.16 71.89 71.79 71.67 71.44 70.88 70.15 70.00 70.32 70.57 70.74 70.37 70.00 69.91 70.07 69.63 69.60 70.11 69.13 68.86 67.35 66.08 66.57 65.41 70.18 72.43 72.38 72.29 72.58 72.65 72.93
70.50 69.80 70.60 71.01 72.41 74.04 73.50 73.10 72.72 72.37 72.40 72.10 71.93 71.81 71.86 72.01 71.81 71.54 71.59 71.27 71.15 71.10 70.63 69.90 69.23 68.60 68.79 69.21 69.33 70.09 69.03 68.84 65.77 65.21 65.84 65.41 71.37 72.10 71.51 71.62 71.73 72.53 72.80
69.58 70.84 70.13 70.29 70.25 70.73 71.19 73.54 73.16 72.71 72.47 72.16 72.19 72.04 72.10 72.13 72.00 72.02 71.53 71.76 71.10 70.31 69.75 68.89 67.98 67.60 67.58 68.24 69.36 69.31 69.04 69.22 65.71 65.45 64.66 64.79 71.30 71.26 71.12 70.78 71.83 72.41 72.60
65.33 70.54 70.29 69.99 70.04 69.65 69.95 72.01 73.03 73.41 72.81 72.62 72.23 72.36 71.37 68.65 68.62 69.49 70.63 71.32 71.02 70.39 69.53 68.60 67.90 67.31 66.71 67.07 67.80 68.68 69.31 64.85 64.81 64.69 64.72 67.33 71.29 70.82 70.66 70.53 71.26 72.06 72.40
58.10 69.40 70.51 70.24 69.87 69.60 70.06 70.14 70.85 70.84 70.59 70.74 70.40 69.92 69.11 67.44 65.25 66.79 69.38 72.07 71.15 71.27 70.22 68.77 67.95 66.90 66.44 63.37 63.23 66.98 65.18 64.55 64.48 63.19 63.31 68.67 70.58 70.69 70.13 69.74 70.13 71.10 71.98
58.09 61.80 69.94 70.11 70.19 69.72 69.52 69.53 70.36 69.99 69.96 70.27 69.00 68.02 67.89 67.23 66.14 67.05 64.68 67.89 65.79 69.04 64.66 66.00 64.63 63.79 63.18 62.74 62.89 62.75 65.22 64.98 64.56 63.77 63.96 69.34 70.29 70.45 70.09 69.55 69.34 69.87 71.08
57.81 59.25 69.47 70.69 70.58 69.85 69.37 68.81 69.56 68.75 69.00 68.82 68.43 66.99 67.75 66.92 66.34 64.83 64.33 64.68 64.14 63.48 63.20 62.72 62.80 62.85 63.26 63.99 63.39 63.58 64.79 64.40 65.10 64.45 62.80 70.61 69.81 70.73 69.59 69.20 69.14 69.28 70.26
58.21 59.14 67.27 70.75 70.72 70.07 68.40 69.01 69.02 68.34 68.24 68.12 68.01 67.76 67.39 66.78 64.52 63.79 63.30 64.15 64.02 64.22 63.31 62.84 63.69 63.54 64.20 63.69 64.27 62.67 62.60 63.60 64.93 64.42 64.92 69.90 69.33 69.79 69.53 69.33 69.26 69.24 69.32
60.03 59.81 64.48 68.88 70.32 70.06 68.71 68.74 68.98 69.02 68.46 68.14 68.14 68.15 68.02 66.38 64.25 64.70 65.07 63.58 63.18 62.81 62.61 62.64 62.28 62.13 61.89 62.09 62.65 63.91 62.97 62.60 64.15 64.28 65.80 65.94 68.65 68.70 69.04 69.31 68.90 69.05 69.26
60.40 60.75 64.91 67.79 68.54 69.27 68.83 67.27 68.96 69.45 69.06 68.19 67.29 68.31 68.03 65.99 64.65 65.23 64.10 63.52 63.35 63.51 63.27 63.04 62.31 62.41 62.10 62.18 61.35 61.72 63.78 62.33 63.60 62.95 63.99 64.57 66.30 68.55 68.50 68.41 69.08 68.67 69.22
59.73 60.80 63.98 69.46 68.78 68.82 68.01 68.40 68.80 69.01 68.44 67.93 66.69 68.06 67.43 66.09 66.01 65.36 63.82 63.12 63.83 63.84 63.07 62.66 61.78 61.18 61.42 61.23 60.70 60.53 61.16 61.98 61.88 62.52 62.89 63.74 63.44 64.32 67.28 68.55 68.85 69.35 69.65
59.97 61.34 65.31 68.04 69.14 68.95 68.93 68.07 68.99 68.27 66.73 65.79 65.25 65.10 67.18 67.05 67.17 64.85 64.06 63.26 63.64 63.97 63.24 62.70 62.04 61.09 60.05 60.35 60.54 60.81 60.83 61.65 61.72 62.68 62.63 63.27 63.47 63.09 63.01 67.15 68.28 69.01 69.72
60.78 62.92 64.56 66.69 69.29 69.85 69.90 68.61 68.63 67.36 65.82 65.72 64.73 64.69 65.71 66.42 66.78 65.23 64.03 63.32 63.88 63.08 62.13 61.67 60.98 60.68 60.53 60.05 61.38 60.46 61.06 60.50 60.60 60.43 62.41 63.69 61.67 62.27 63.25 63.44 64.84 66.01 69.12
63.85 65.00 66.43 68.23 69.71 70.40 69.57 68.22 66.46 64.86 64.40 65.07 64.43 65.49 65.91 66.05 66.05 64.48 63.43 63.20 63.00 61.95 61.54 61.56 60.56 59.95 59.72 59.98 57.77 56.73 58.90 59.77 59.49 60.35 60.91 61.13 61.33 62.39 61.39 64.33 64.11 64.14 65.79
61.93 65.39 66.80 69.44 69.86 69.54 69.26 67.42 66.44 64.40 64.41 64.63 64.24 64.34 64.82 64.56 64.35 63.60 62.71 62.21 62.22 61.50 61.36 60.48 59.34 58.29 58.31 58.81 56.31 56.75 52.54 55.51 58.50 60.18 60.06 60.42 61.41 60.94 61.82 64.59 63.57 64.24 64.62
63.06 65.45 66.77 68.97 68.51 68.71 68.56 67.79 65.45 63.54 62.96 62.17 62.44 63.77 64.07 64.54 64.97 63.86 63.00 62.37 61.50 61.17 60.26 59.60 59.46 58.20 56.29 57.41 57.95 55.57 53.62 51.66 54.07 57.37 59.09 59.64 59.28 61.08 61.30 62.66 63.72 64.37 65.83
63.49 64.86 65.92 68.85 68.49 68.57 67.41 65.31 63.34 61.35 60.65 61.35 61.65 62.96 64.17 64.04 64.23 64.21 63.35 62.44 61.41 60.90 59.96 60.02 60.40 58.66 57.19 55.89 57.09 59.15 57.90 57.96 52.37 50.78 56.05 58.91 60.22 61.81 61.06 61.42 61.55 63.77 64.43
63.77 64.43 66.79 67.77 66.98 66.56 65.10 63.90 61.95 60.57 61.65 62.03 62.60 62.52 62.97 61.92 62.74 63.50 62.46 61.68 61.24 60.81 60.33 60.13 60.13 59.50 58.69 56.93 56.43 56.09 56.99 57.61 58.11 53.93 50.92 54.38 58.24 59.08 60.17 60.67 61.16 63.32 64.25
64.95 65.70 66.79 66.03 65.06 65.22 64.15 63.56 62.44 61.65 61.50 60.70 61.72 61.73 61.43 60.97 62.07 62.26 62.82 61.25 60.98 60.74 60.76 60.81 60.48 59.71 59.03 59.01 58.59 57.95 56.41 54.37 54.56 54.87 53.84 53.64 54.29 56.27 61.17 61.84 61.62 63.42 62.86

GFSSE_sfc_wetblb_024.txt.gz
Wetbulb
68.22 71.97 74.94 74.51 73.78 73.38 72.62 71.21 70.67 70.21 70.09 69.62 68.43 67.47 67.17 67.01 66.39 65.93 65.47 65.09 65.08 64.97 64.78 64.67 64.67 64.52 64.66 64.84 64.90 65.31 65.37 65.38 65.76 66.37 67.61 69.70 71.35 72.89 73.51 74.79 74.38 73.39 75.19
69.19 71.85 74.89 74.16 73.66 72.92 72.59 71.91 71.27 70.86 70.54 69.82 68.32 67.73 67.12 66.66 66.29 66.18 66.10 65.54 65.15 65.23 65.48 65.62 65.58 65.49 65.27 65.36 65.29 65.56 66.08 65.98 65.95 65.78 66.14 67.07 68.09 69.69 72.99 73.74 74.21 72.77 75.09
69.65 71.49 72.87 73.99 73.54 73.23 72.73 72.26 71.70 71.18 70.42 70.08 69.16 67.88 67.43 67.12 66.90 66.53 66.32 65.97 66.18 66.32 66.16 66.37 66.64 66.85 66.88 66.72 66.23 66.23 66.31 66.56 66.66 66.39 66.45 63.57 64.17 67.20 70.12 73.38 73.91 73.81 74.06
70.34 70.99 71.37 73.89 73.66 73.29 72.74 72.10 71.61 71.23 70.78 70.55 69.56 68.12 67.78 67.51 67.19 66.87 66.63 66.53 66.66 67.04 66.83 66.77 67.12 67.49 68.23 68.40 68.01 67.59 67.43 67.33 67.25 67.41 63.98 64.14 64.14 67.43 69.47 74.02 73.33 73.88 73.60
69.47 70.63 70.87 73.79 73.52 73.46 72.97 72.33 71.61 71.29 71.21 70.63 69.51 69.14 68.77 68.29 68.47 67.99 67.21 67.39 67.50 67.99 67.78 68.02 68.37 68.48 68.53 69.34 69.79 69.00 68.64 68.07 68.01 67.29 63.87 62.65 61.15 65.43 72.84 74.02 73.95 73.61 73.27
68.96 69.84 72.28 73.42 73.27 73.29 73.09 72.45 71.71 71.63 71.61 71.19 70.52 69.99 69.57 68.89 69.35 68.94 68.18 68.21 68.15 68.33 68.86 69.35 69.48 69.61 69.42 69.25 69.77 70.15 69.90 69.25 68.79 65.33 64.30 64.26 64.58 67.29 74.16 74.50 73.37 72.96 73.67
67.69 68.20 71.61 73.52 73.42 73.27 73.22 72.70 71.96 71.81 71.61 71.66 71.51 70.86 70.23 70.47 70.11 69.24 68.90 68.69 68.59 68.64 69.27 69.80 70.19 70.54 70.35 70.10 69.80 70.19 69.40 69.44 67.79 66.09 65.08 64.54 64.50 68.31 73.98 74.17 73.34 73.14 73.42
67.09 67.09 70.41 73.37 73.34 72.92 73.05 72.57 72.20 71.81 71.66 71.76 71.83 71.66 71.41 71.29 70.92 70.26 69.80 69.35 69.39 69.77 70.21 70.53 70.82 70.28 70.04 69.50 69.57 69.79 69.43 69.12 67.34 65.51 65.71 65.08 66.89 71.60 73.02 73.44 73.64 73.02 72.90
67.80 66.61 69.15 70.30 72.01 73.34 73.02 72.45 72.15 71.76 71.58 71.63 71.58 71.55 71.73 71.61 71.38 71.24 71.02 70.50 70.13 70.50 70.99 71.04 70.43 69.82 69.30 69.18 69.26 69.60 69.50 69.25 65.61 64.59 65.30 64.65 68.28 72.03 72.40 72.86 72.82 72.77 73.19
67.25 67.36 68.13 68.41 69.74 70.33 70.62 72.97 72.37 72.07 71.68 71.48 71.62 71.67 71.67 71.87 71.65 71.45 70.99 71.29 70.77 71.09 70.87 70.72 69.99 68.67 67.99 67.87 68.26 69.08 69.43 69.30 65.86 64.77 64.51 64.18 68.64 71.46 72.11 71.67 71.68 72.35 72.90
67.24 67.71 68.35 68.48 67.71 69.52 69.40 71.07 72.39 72.77 72.24 71.75 71.67 71.67 70.80 68.84 69.01 69.28 70.57 70.86 71.28 71.35 71.06 70.23 69.38 68.43 67.75 67.24 67.04 68.04 68.84 65.31 64.67 64.40 64.36 66.76 68.20 70.35 70.95 71.56 71.60 71.83 72.42
65.05 67.46 68.32 68.56 67.80 67.82 68.66 68.72 69.97 69.65 69.45 69.43 68.79 68.61 68.65 67.22 66.46 68.77 69.30 71.25 71.64 71.93 71.04 70.18 69.35 68.45 67.22 62.64 62.95 65.92 63.95 64.44 64.31 64.02 63.30 67.38 68.25 69.63 70.63 70.44 70.94 71.93 72.32
59.23 67.55 68.57 68.55 68.59 67.62 66.73 67.66 69.39 68.86 68.67 68.71 68.20 67.88 68.01 67.32 65.81 66.03 64.78 66.93 69.13 70.88 67.18 68.22 66.23 64.91 62.67 62.24 62.34 61.82 62.56 63.43 63.52 64.42 65.44 67.55 68.74 69.29 70.49 70.34 69.91 71.09 71.92
57.02 65.68 68.71 68.74 68.34 68.04 67.27 67.09 68.17 67.99 68.24 68.32 68.28 67.22 67.13 65.25 63.97 63.58 63.62 63.88 64.49 64.70 63.50 62.50 61.97 61.94 61.90 62.47 63.22 61.92 62.35 63.14 64.42 63.70 63.11 67.58 68.99 69.99 70.83 69.96 69.63 69.58 70.69
56.45 58.68 67.68 68.61 68.27 68.21 67.33 67.67 67.57 67.46 67.68 68.29 67.88 67.02 66.86 65.26 64.38 64.12 63.51 62.76 63.44 62.46 62.57 61.82 61.69 62.08 61.90 62.04 62.82 63.57 62.85 63.98 64.67 63.51 61.90 66.71 69.01 70.60 69.72 69.63 69.51 69.20 69.37
57.38 56.72 65.58 68.01 68.50 68.45 67.68 67.14 67.73 67.65 67.16 67.32 67.24 66.54 66.66 66.11 65.01 63.78 62.87 62.12 63.07 63.03 62.50 61.89 61.90 61.43 61.63 62.06 62.33 62.46 62.96 62.34 62.13 63.72 64.52 65.09 69.13 69.30 69.17 69.58 69.56 69.34 69.15
56.93 58.29 63.56 67.87 68.67 68.18 67.80 66.68 67.71 67.69 67.42 66.72 66.37 66.51 66.77 66.34 64.82 64.05 63.16 63.73 62.54 61.98 61.55 61.88 61.48 61.31 60.76 60.80 60.38 60.91 61.21 63.28 61.83 63.40 63.73 64.01 65.37 68.70 68.84 69.30 69.44 69.20 69.50
57.49 57.46 59.76 67.39 68.59 68.33 67.86 66.78 67.77 67.76 67.40 66.84 66.81 67.09 67.34 66.63 65.20 63.90 63.12 62.48 62.97 62.72 62.18 61.44 61.01 61.19 60.22 60.19 59.79 60.17 60.33 61.12 62.08 62.11 62.10 63.83 63.82 63.94 67.77 68.87 68.60 68.78 69.17
57.88 57.43 57.79 64.58 66.30 67.40 67.67 66.58 67.40 67.52 67.47 66.61 66.63 67.34 67.08 66.48 65.73 64.53 63.34 62.78 62.59 62.48 61.58 61.23 60.66 59.98 59.02 59.02 59.54 59.65 59.65 59.68 60.35 61.90 61.16 62.24 62.67 63.25 63.14 66.21 68.27 68.27 69.30
56.57 58.05 58.89 65.21 65.28 66.12 66.21 66.53 66.26 65.55 64.66 64.75 65.51 66.33 66.30 66.22 66.08 63.80 63.18 62.71 62.57 61.89 61.37 60.01 60.47 59.69 59.50 59.02 60.34 60.35 58.61 60.23 59.32 59.40 60.40 61.64 62.99 62.94 61.92 62.12 63.56 64.86 68.35
57.47 58.17 60.51 65.46 65.84 67.55 66.70 66.92 65.92 63.56 63.67 63.02 63.58 64.93 65.24 65.13 65.24 63.49 62.91 62.49 62.20 61.49 61.04 59.94 59.38 59.42 58.96 59.99 58.52 57.25 56.83 59.03 58.55 58.90 59.75 59.84 61.36 62.18 60.80 62.46 62.30 63.27 64.46
58.78 61.41 61.72 65.62 67.58 68.09 67.84 67.40 65.09 64.39 62.84 63.18 63.71 65.09 64.95 64.56 64.44 63.61 62.35 61.38 61.37 60.70 60.06 59.08 58.78 56.69 57.25 58.42 55.83 55.93 54.63 56.25 58.55 59.36 59.50 59.83 59.45 60.04 60.50 62.34 63.37 63.09 63.55
60.13 62.66 65.22 66.91 67.54 67.40 66.82 65.35 62.84 62.25 61.73 61.08 62.13 62.48 63.22 63.84 63.50 62.88 61.70 61.04 60.64 60.08 59.08 58.55 57.97 56.97 55.43 55.75 56.29 54.95 53.00 51.11 54.76 57.37 58.69 58.95 59.14 58.54 60.19 61.71 62.93 62.59 62.68
61.26 64.79 66.91 67.13 67.34 67.22 67.05 64.44 63.67 60.33 59.59 60.06 61.09 61.71 62.06 63.72 63.50 62.90 62.38 61.73 60.51 59.52 58.91 58.75 59.25 57.45 55.95 54.37 55.49 57.59 55.79 55.43 53.08 50.26 55.01 57.07 58.35 59.45 58.25 59.38 61.39 61.97 63.85
63.71 65.25 67.34 67.14 67.02 65.86 64.95 63.88 62.34 60.38 59.88 59.97 60.94 61.49 61.28 61.57 62.40 63.15 61.76 60.84 60.11 59.40 58.87 59.47 58.97 58.07 57.15 55.79 54.87 54.77 54.93 55.57 57.43 53.23 49.97 53.18 56.67 57.57 58.55 59.07 60.06 61.49 62.88
64.10 66.39 66.62 66.11 64.71 63.98 63.19 61.79 60.60 60.60 59.92 60.13 59.73 60.14 59.81 59.72 60.36 61.36 61.69 60.22 59.76 59.54 59.21 59.25 59.30 58.67 57.85 57.21 56.59 56.13 54.83 53.86 55.02 54.77 51.84 51.82 52.67 56.53 59.94 61.75 60.52 60.17 61.44

GFSSE_sfc_wetblb_030.txt.gz
Wetbulb
65.30 71.41 75.61 74.88 73.98 73.81 73.50 72.30 72.50 72.50 72.34 72.14 71.30 70.85 70.71 70.74 69.67 69.11 68.30 67.48 66.95 66.48 65.94 65.58 65.26 65.14 65.03 65.12 65.16 65.31 65.58 65.53 65.90 66.51 67.37 68.48 69.54 70.72 72.75 73.22 73.35 72.85 74.24
66.80 72.33 75.28 74.76 74.33 73.52 73.42 72.87 72.73 72.12 71.60 71.33 70.86 70.14 69.30 68.84 67.93 67.53 66.74 66.39 66.08 65.70 65.56 65.48 65.17 65.26 65.24 65.07 65.10 65.13 64.94 65.02 65.19 65.26 65.62 66.66 67.43 67.75 69.48 72.77 72.90 73.15 73.24
67.31 71.87 73.60 74.63 74.56 73.86 73.46 73.06 72.64 71.95 71.45 70.79 70.28 69.75 69.07 68.92 67.64 66.95 67.45 66.15 66.05 65.78 66.10 66.60 66.55 66.55 66.36 66.15 65.99 65.80 65.67 65.46 65.51 65.24 65.79 64.97 64.34 66.33 68.15 71.72 72.86 73.12 73.98
68.42 71.21 72.05 74.58 74.39 73.86 73.46 72.84 72.35 72.10 71.30 70.82 70.47 69.61 69.07 68.94 68.13 67.11 66.74 66.47 66.62 66.78 66.76 66.79 66.55 66.50 66.89 67.20 67.25 66.93 66.82 66.59 66.49 66.39 65.00 64.88 63.99 65.75 67.83 68.64 72.66 73.11 73.36
69.08 70.44 70.80 74.63 74.26 73.99 73.49 72.84 72.23 71.71 71.38 71.02 70.57 69.94 69.53 69.36 69.14 68.42 67.13 67.11 67.40 67.54 67.49 67.19 67.27 67.29 67.47 67.78 68.40 68.62 68.25 67.70 67.50 67.03 65.43 64.78 64.16 66.00 68.93 70.22 71.50 73.54 73.47
68.56 69.84 71.26 74.48 73.99 73.74 73.64 73.14 72.28 71.95 71.60 71.23 70.85 70.55 70.02 69.29 69.17 68.68 67.59 67.41 67.64 67.99 67.86 68.25 68.47 68.32 68.24 68.43 68.34 68.91 70.08 69.46 69.07 67.24 66.13 65.80 66.40 66.99 69.54 71.37 73.19 73.55 73.56
67.89 69.01 70.04 74.16 73.91 73.86 73.84 73.37 72.67 72.20 71.68 71.36 71.21 70.50 69.90 70.16 69.48 68.60 68.07 67.89 68.17 68.76 68.91 69.06 69.30 69.48 69.44 69.74 69.96 69.77 69.76 69.91 68.73 67.98 67.39 66.85 66.55 68.32 70.08 72.13 74.03 73.31 73.54
67.56 68.33 68.95 73.64 73.66 73.56 73.66 73.17 72.55 71.95 71.81 71.54 71.29 70.96 70.66 70.45 69.83 69.20 68.54 68.37 68.72 68.91 69.13 69.39 69.48 69.78 70.77 70.01 69.89 69.94 70.06 70.05 68.72 66.86 66.90 66.36 66.68 68.57 70.39 71.87 73.24 73.52 73.49
67.00 67.32 67.67 70.91 72.47 73.84 73.36 72.89 72.22 71.75 71.56 71.26 70.92 70.85 70.77 70.75 70.40 70.01 69.77 69.41 69.06 69.46 69.70 69.98 70.13 70.58 70.38 69.74 69.25 69.03 69.16 69.74 68.82 66.61 66.10 66.15 66.65 68.23 69.98 71.69 72.26 72.91 72.99
64.81 66.27 66.11 68.83 70.53 70.51 70.94 73.24 72.62 72.07 71.63 71.25 71.18 71.26 71.01 70.92 70.74 70.62 70.07 70.35 69.83 69.84 70.04 70.48 70.53 70.67 70.42 69.40 68.69 68.38 68.38 68.63 68.17 66.73 66.24 66.17 67.60 68.32 69.01 70.88 71.27 72.27 72.89
64.95 63.62 64.85 67.11 68.51 69.27 69.72 70.58 72.47 72.23 72.10 71.64 71.59 71.59 70.23 68.76 69.11 68.95 69.94 70.01 70.31 70.45 70.70 70.86 70.91 71.12 69.84 68.57 68.06 67.82 67.47 65.97 66.35 66.47 66.19 67.07 68.11 68.72 68.33 69.65 70.80 71.52 72.20
63.69 64.06 63.49 65.35 66.90 67.86 68.72 68.39 69.51 69.05 69.14 69.40 69.28 69.08 68.66 67.77 67.66 68.63 69.35 69.96 70.26 70.65 71.04 71.44 71.05 70.37 69.13 66.05 65.15 66.06 64.69 64.92 65.19 65.80 66.08 67.94 68.17 68.55 68.34 68.95 71.02 71.33 71.83
62.51 64.82 64.26 64.45 66.10 66.50 66.89 66.81 68.02 68.66 67.90 68.50 68.21 67.81 67.97 67.66 67.99 68.46 66.87 67.93 68.06 69.91 68.84 70.35 70.08 68.78 66.37 64.87 63.85 63.30 63.21 63.40 63.99 64.96 65.96 67.54 68.03 68.35 68.37 68.63 69.66 70.44 70.78
55.83 61.88 65.17 65.26 65.14 65.23 66.37 65.69 66.04 67.33 66.94 67.29 67.72 67.07 66.80 66.46 65.62 66.33 65.41 65.10 65.58 67.03 68.06 67.84 67.12 66.78 65.47 64.49 63.50 62.86 62.99 63.01 62.97 63.47 64.34 66.87 67.84 68.23 67.91 68.97 69.45 69.95 70.41
54.70 56.11 60.40 65.10 65.40 65.21 64.93 64.98 64.84 65.80 66.10 66.07 66.96 66.69 66.74 65.99 64.72 64.53 64.70 63.71 63.52 65.19 66.15 65.86 65.01 64.18 63.58 63.09 63.02 62.98 62.95 63.10 63.81 64.06 64.64 66.54 67.71 68.26 68.27 69.19 69.54 69.40 69.25
54.56 54.97 56.26 64.39 65.97 66.07 64.56 64.67 64.42 64.36 65.18 64.99 65.96 66.65 66.42 65.65 64.48 63.92 63.42 62.99 62.97 63.88 64.46 64.74 63.90 62.92 62.55 62.64 62.71 63.13 63.48 63.64 63.86 65.78 65.06 65.35 66.64 68.25 68.59 68.96 69.83 69.64 69.02
55.31 55.59 55.22 60.65 65.62 65.87 65.43 64.76 64.00 64.09 64.95 64.39 65.28 66.27 66.36 65.19 63.96 63.62 63.21 62.49 63.51 63.61 63.78 63.19 63.11 62.81 62.19 62.07 62.29 62.91 63.09 63.90 64.09 64.38 63.91 64.84 65.76 67.26 68.37 69.03 69.47 69.28 68.86
54.86 54.80 55.09 61.43 64.76 65.74 65.96 65.79 64.42 64.07 64.76 64.73 65.10 66.20 66.29 65.04 64.22 63.51 62.72 63.11 63.81 63.24 63.19 62.76 62.53 61.97 61.84 61.55 61.44 62.03 62.09 62.19 62.67 63.41 64.05 64.60 64.96 65.10 66.55 68.81 69.08 68.88 68.66
54.91 54.86 54.49 56.36 62.83 65.20 65.83 66.02 65.41 65.19 64.91 64.95 65.60 65.89 65.76 65.40 65.00 63.75 63.39 63.46 63.63 62.90 62.32 62.34 61.82 62.08 61.23 61.16 61.27 61.43 61.99 61.88 62.03 62.51 63.09 63.78 64.10 66.00 65.65 67.78 68.44 68.83 69.01
54.92 54.46 54.36 54.69 59.37 64.14 65.06 64.09 63.65 64.45 64.95 64.94 64.85 65.29 65.44 65.56 65.04 64.09 63.94 63.58 63.33 62.68 62.17 61.91 61.61 61.16 61.30 61.00 60.64 60.96 61.21 61.24 61.62 61.15 62.06 62.78 63.37 64.53 65.09 64.27 66.58 66.83 67.79
54.33 54.33 54.24 55.13 60.82 64.50 63.87 62.77 62.45 63.75 64.11 64.42 65.35 65.53 65.46 65.69 65.13 64.64 64.17 63.53 62.86 62.57 62.37 61.68 61.34 61.04 60.09 61.17 59.65 58.98 59.48 60.74 60.35 60.63 61.36 61.50 62.30 63.81 64.14 63.59 64.84 65.01 65.44
54.16 54.21 53.95 54.80 60.50 64.38 64.94 63.47 63.81 63.80 64.05 64.21 65.20 65.74 66.02 65.69 65.47 64.66 63.82 62.91 62.65 61.90 61.82 61.09 61.82 59.20 59.49 60.08 57.94 56.56 55.46 57.81 60.05 60.49 60.14 60.90 61.47 62.97 63.62 63.76 64.10 64.40 65.17
52.37 54.07 54.89 55.01 60.26 62.83 63.65 62.83 62.00 62.03 62.06 61.91 63.32 63.85 65.06 65.76 65.53 64.76 63.48 62.86 62.03 62.38 61.44 60.79 60.33 59.34 58.10 58.19 58.63 57.12 53.54 52.84 55.98 59.75 59.38 60.85 61.20 61.67 62.84 62.85 62.98 64.29 64.62
52.78 53.05 55.13 58.46 62.18 63.55 63.87 62.43 62.66 61.01 60.45 61.33 62.72 63.37 63.79 64.64 64.26 63.38 63.24 62.60 62.10 62.10 60.99 60.53 60.02 59.02 58.08 56.68 57.95 57.87 57.47 56.82 54.43 53.97 57.40 59.06 60.69 60.67 60.75 61.97 63.23 63.83 64.78
51.07 53.71 59.66 62.34 63.70 63.56 63.32 63.37 62.57 60.71 59.91 61.80 62.29 62.14 61.97 62.67 63.28 63.23 62.59 62.72 62.14 60.92 60.58 60.08 59.85 58.89 58.69 57.78 57.14 56.38 56.64 57.28 57.40 56.28 53.40 55.35 58.74 59.86 60.89 61.36 62.24 63.29 64.27
60.90 63.07 64.08 63.35 62.33 62.87 63.05 61.67 61.37 60.27 60.80 60.82 60.69 60.91 61.15 60.83 61.67 62.39 63.03 62.10 61.48 60.58 60.40 60.12 60.26 59.86 59.11 58.66 57.94 57.58 57.10 56.46 56.38 56.42 54.90 53.84 55.10 58.40 60.13 61.34 61.92 62.77 63.90

GFSSE_sfc_wetblb_033.txt.gz
Wetbulb
68.66 72.12 75.69 75.36 74.84 74.56 74.43 73.85 73.91 73.54 73.41 73.39 73.39 73.39 73.22 72.97 72.62 71.65 70.43 69.73 69.78 68.45 67.73 66.88 66.22 65.86 65.93 65.95 65.91 66.11 66.33 66.41 66.62 67.15 67.57 69.31 70.00 70.46 72.68 73.24 73.30 73.54 74.11
70.73 73.04 75.39 75.09 74.69 74.71 74.28 73.96 73.84 73.67 73.37 73.04 73.04 72.79 72.52 71.77 71.12 71.05 70.18 68.88 68.39 67.41 66.67 66.20 65.78 65.54 65.45 65.51 65.69 65.89 65.68 65.71 65.50 65.73 66.03 66.30 66.81 68.07 69.67 72.66 73.14 73.65 73.59
70.74 73.36 74.56 74.94 74.74 74.59 74.11 73.59 73.32 73.20 73.15 72.97 72.70 72.27 71.49 71.06 70.03 69.09 69.26 68.17 67.29 67.06 66.74 66.64 66.60 66.94 66.83 66.59 66.60 66.60 66.17 66.25 65.93 65.60 66.89 66.39 66.03 66.46 69.18 71.42 73.06 73.26 73.50
72.11 73.80 73.13 74.89 74.47 74.51 73.94 73.32 73.02 72.72 72.40 72.07 71.82 71.34 70.63 70.39 69.79 68.43 67.72 67.10 67.14 67.27 67.49 67.78 67.67 67.70 67.51 67.79 67.57 67.12 67.12 66.86 66.75 66.73 67.59 66.32 64.69 64.47 68.20 68.83 70.84 72.98 73.25
72.35 73.21 73.66 74.91 74.62 74.44 73.99 73.52 72.95 72.55 72.08 71.70 71.32 70.96 70.68 70.36 69.76 69.16 68.58 67.88 67.33 67.55 67.88 67.64 67.59 67.64 68.19 68.70 68.72 68.60 68.15 67.72 67.61 68.06 68.62 68.06 66.96 64.80 68.56 70.33 70.96 73.25 73.41
71.65 72.52 73.30 74.86 74.49 74.37 73.96 73.54 73.05 72.38 72.05 71.70 71.42 71.14 70.87 70.28 69.97 69.52 69.09 68.81 68.02 68.40 68.21 68.15 68.33 68.60 68.49 68.33 68.30 68.57 69.75 69.38 69.30 69.92 70.41 68.70 66.73 66.82 69.61 70.69 71.93 73.17 74.14
71.29 72.21 72.42 74.81 74.31 74.29 74.16 73.87 73.05 72.48 71.91 71.70 71.52 71.35 71.10 70.66 70.42 69.83 69.36 68.34 68.43 68.87 68.82 68.94 69.39 69.45 69.36 69.60 69.68 69.64 69.22 69.88 70.35 69.97 69.21 70.20 68.13 68.15 69.96 71.09 73.02 73.63 73.47
71.31 72.16 71.99 74.42 74.39 74.02 73.87 73.74 72.97 72.18 72.03 71.86 71.41 71.41 71.28 70.92 70.48 69.93 69.95 69.16 68.98 69.27 69.75 69.93 70.05 69.92 69.93 70.04 69.89 69.65 69.67 70.10 69.98 69.77 69.03 69.34 68.25 68.09 69.71 71.68 73.33 73.51 72.99
71.46 71.73 71.56 72.86 73.82 74.06 73.84 73.49 72.85 72.20 72.20 71.66 71.29 71.19 71.22 71.17 70.58 70.31 70.14 70.11 70.25 70.42 70.64 70.64 70.27 70.18 70.56 70.36 69.60 69.14 68.94 69.20 69.96 69.85 69.58 69.32 66.56 67.64 69.08 70.92 71.47 72.91 73.24
70.79 71.00 70.53 71.51 72.72 72.35 72.12 73.77 73.09 72.55 72.32 71.73 71.59 71.34 71.12 71.19 70.85 70.53 69.82 70.26 70.58 70.75 70.58 70.85 70.56 70.73 70.77 70.09 69.38 68.60 68.33 68.54 68.64 69.46 69.73 69.91 67.45 68.23 68.47 69.87 71.01 71.82 72.84
69.10 70.10 70.45 70.22 72.19 72.00 71.40 71.92 73.22 73.00 72.55 72.00 71.81 71.41 70.65 69.18 69.53 69.49 69.57 70.41 70.95 71.02 71.04 71.00 70.82 71.26 70.86 69.67 68.80 68.21 67.65 67.70 67.46 67.33 68.12 68.09 68.22 68.55 68.34 68.78 70.23 70.47 71.60
69.21 69.50 69.66 70.14 70.94 71.83 70.36 71.82 72.12 71.44 70.97 71.43 70.83 70.86 70.29 70.18 70.01 68.24 69.64 70.40 70.99 71.17 70.92 70.99 71.21 70.96 70.26 69.48 68.84 67.69 67.86 67.76 67.32 66.88 67.51 67.63 68.36 68.72 68.55 68.58 69.27 70.89 71.37
67.16 70.04 69.96 70.07 71.06 71.32 71.03 71.11 71.26 71.87 71.58 71.71 71.18 71.36 71.72 70.41 70.12 69.36 69.10 69.54 69.45 70.43 70.25 71.07 71.34 70.84 70.06 69.44 68.57 68.11 67.63 66.50 66.50 67.28 67.10 67.12 67.79 68.26 68.31 68.75 69.04 70.26 71.39
64.29 66.73 70.18 70.60 70.03 71.34 71.40 70.41 70.50 70.53 70.78 70.37 70.31 71.42 71.21 69.53 69.34 69.25 68.08 68.55 69.37 68.62 70.07 70.72 70.73 71.15 70.73 69.68 68.75 67.89 67.48 67.38 67.43 67.46 67.91 66.68 67.49 68.38 68.54 68.60 68.82 70.03 70.15
64.00 65.87 66.66 69.99 70.32 70.91 71.01 70.35 70.34 70.43 70.05 70.22 69.48 70.46 70.81 69.04 69.18 68.85 68.47 67.96 68.15 68.18 68.70 70.00 70.45 70.24 70.16 69.41 68.31 67.70 67.47 67.65 67.77 67.97 68.40 66.83 67.54 68.35 68.72 68.60 69.09 69.81 69.93
64.69 64.82 66.19 66.59 71.29 70.82 70.39 71.21 70.55 70.42 70.58 69.68 69.51 70.26 70.81 69.68 69.57 68.21 68.19 67.15 67.15 67.16 67.58 69.24 69.82 69.62 69.30 68.61 67.79 67.89 67.68 67.91 68.07 68.39 68.46 68.88 67.16 67.83 68.62 68.37 69.51 69.85 69.73
64.53 65.99 66.89 66.04 69.50 71.05 71.45 70.97 70.33 69.63 69.47 69.35 68.88 70.07 69.74 70.13 69.11 68.89 67.56 67.59 67.21 67.36 68.64 69.06 68.77 68.75 68.06 68.06 67.54 67.80 67.88 68.18 67.72 68.17 68.28 68.23 67.40 67.11 68.15 68.53 69.05 70.04 69.93
64.33 65.43 66.85 64.22 67.15 71.34 71.55 70.77 70.07 69.89 68.97 68.94 68.88 68.96 69.39 69.48 69.11 68.63 67.39 67.00 68.07 67.60 66.82 66.68 67.71 66.71 67.39 67.26 67.32 67.31 67.25 67.46 67.69 67.85 67.67 67.78 67.97 67.75 68.25 67.80 69.53 69.74 69.50
66.00 66.48 66.18 65.76 64.98 69.80 71.16 70.66 70.58 69.99 68.74 69.00 68.91 68.58 68.89 68.87 68.58 68.22 67.65 68.00 68.13 66.52 66.37 67.23 67.48 67.23 66.94 66.96 66.89 66.96 67.45 66.85 67.20 67.47 67.01 67.45 67.94 67.83 68.18 68.26 68.91 68.53 68.62
65.55 66.47 66.41 65.45 65.85 68.15 69.10 69.91 69.69 69.12 68.57 68.91 68.75 68.81 68.89 68.65 68.50 68.63 67.88 67.12 67.38 66.45 66.47 67.17 67.54 67.34 67.08 67.38 66.26 64.50 65.30 66.26 66.81 66.75 66.66 66.81 67.08 67.62 68.38 67.94 68.53 67.72 68.16
65.70 65.93 67.69 65.55 65.99 65.58 67.40 67.31 67.60 67.32 68.29 68.32 68.66 69.25 69.16 69.31 69.06 68.59 67.60 67.98 67.41 66.35 67.56 68.11 68.17 67.08 66.05 65.56 63.29 62.94 64.14 65.46 65.86 65.65 66.22 66.08 66.25 66.97 67.99 68.14 67.31 70.14 67.49
64.00 65.41 66.90 65.19 64.98 67.27 67.90 68.63 68.93 68.94 67.92 67.92 68.28 69.52 69.94 69.43 69.18 68.65 68.10 67.41 67.77 66.73 68.76 67.95 67.37 64.28 63.86 63.47 62.77 61.01 59.16 61.91 63.88 64.86 65.21 65.10 66.01 66.33 66.53 67.40 64.75 66.80 68.12
63.42 64.57 65.09 65.49 65.10 67.94 69.47 68.95 68.99 68.38 66.22 66.57 67.42 66.79 68.24 68.76 69.18 68.77 68.63 67.87 67.77 68.42 67.41 68.44 66.61 64.39 63.90 61.68 62.54 61.62 58.44 57.53 61.26 63.19 63.48 63.92 63.69 64.51 67.51 67.42 66.59 65.44 68.29
62.49 62.78 62.55 64.24 65.09 67.40 69.47 68.81 68.43 67.92 65.62 67.17 66.39 67.07 67.11 69.30 68.99 68.74 68.43 68.36 68.79 67.44 65.56 66.36 67.00 64.64 64.58 62.22 60.53 61.89 62.17 61.58 58.47 57.93 62.03 63.09 62.30 64.88 66.41 66.64 66.56 66.88 67.13
60.94 60.69 62.11 65.03 66.68 67.53 68.79 69.47 68.80 68.60 68.35 68.85 68.46 67.81 68.26 69.42 69.40 68.60 68.97 69.11 68.45 65.67 65.96 67.56 66.32 65.12 64.33 63.22 61.86 60.81 61.12 61.73 63.06 61.24 56.64 58.18 60.67 63.24 64.70 63.49 63.97 65.94 67.86
61.27 65.45 66.15 66.73 67.69 68.13 68.48 69.01 69.40 68.60 67.77 67.56 67.99 67.62 67.96 68.16 68.52 68.87 68.61 68.67 68.49 66.64 66.89 66.08 66.15 65.68 64.51 63.76 63.23 62.61 61.43 60.15 60.37 61.25 59.58 55.98 57.18 60.90 62.37 63.06 66.01 67.81 67.45